Showing default

COSMOS 2270, 23001

Orbit data source: Space-Track

COSMOS 2270, 23001 is a payload satellite owned by VKS (CIS) in LEO that was launched on Sat, 12 Feb 1994 UTC via a TSIKLON-3 launch vehicle from the Plesetsk Missile And Space Complex (PKMTR). Payloads include a variety of satellites, spacecraft, and rockets equipped with specific instruments for various scientific and technological missions. These include communications satellites like Starlink; space stations such as the ISS; scientific satellites like the Hubble; Earth observation satellites from companies like Planet Labs, Umbra, and HawkEye 360; GPS; miniature CubeSats for education and research; and military/defense satellites.

Loading next visibility...
COSMOS 2270 details
Identifier
23001, 1994-011C
Orbit
LEO
Last TLE update15 hours ago
Origin
Flag of CISVKS (CIS)
ManufacturerNPO PM
MissionDefense Communications
Bus & MotorSTRELA-3, Unknown motor
Mass225 kg wet, 225 kg dry
Launch date (UTC)
1994-02-12 (31 years ago)
Launch vehicle
TSIKLON-3
Launch site
Plesetsk Missile And Space Complex (PKMTR)
Object type
Payload
Rocket body
Debris
Shape & HBRCyl, 1.6 m
Radar Cross Section1.257 m², Large (>1 m²)

Expand to show TLE details & history

TLE from 15 hours ago
0 COSMOS 2270
1 23001U 94011C   25046.83602123  .00000024  00000-0  73833-4 0  9997
2 23001  82.5693 264.7007 0006928 196.4220 174.2944 12.62917326429269
Epoch: 2025-02-15T20:03Z
Definitive object data (Epoch: 2025-02-15T20:03:52.234Z)
Latitude10.58528°
Longitude179.04506°
Altitude1,418.283 km
Speed7.15 km/s
True Right ascension17h 44m 21s
True Declination10° 31' 43"
Sunlit
Object was in daylight at TLE epoch
Visualization TLE readout
Latitude-36.96278°
Longitude171.65219°
Altitude1,428.137 km
Speed7.145 km/s
Apparent Right ascension20h 35m 21s
Apparent Declination-60° 10' 00"
Sunlit
Object is in daylight
Visualization observer readout
Local Sidereal Time13:47:37
Azimuth140.92° SSE
Elevation-39.459°
Doppler factor1
Orbital elements
Apogee altitude1,413.641 km
Perigee altitude1,402.852 km
Semi-major axis7,786.383 km
Eccentricity0.0006928
Inclination82.5693°
RAAN264.7007°
Arg. of periapsis196.422°
True anomaly174.30229°
Mean anomaly174.2944°
Eccentric anomaly174.29834°
Mean motion3.15893 °/min
BSTAR0.000073833
Orbital period113.96 mins
Loading maneuver chart data...
Loading historical data...
Loading historical data...
Loading historical data...
Loading historical data...
Loading historical data...
Loading historical data...
Loading historical data...

COSMOS 2270 Visibility forecast

Observer location: undefined°, undefined

Span
Click to sort rows by Start time (UTC) header in descending order
Start Az.
Max El. time (UTC)
Max El. Az.
Max El.
End time (UTC)
End Az.
8 mins2025-02-16 13:16:19.937Z108.065° ESE2025-02-16 13:20:19.937Z77.621° E15.618°2025-02-16 13:24:19.937Z47.105° ENE
15 mins2025-02-16 15:07:19.937Z184.818° SSW2025-02-16 15:14:19.937Z14.883° NNE44.891°2025-02-16 15:22:19.937Z7.966° NNE
9 mins2025-02-16 17:06:19.937Z265.717° W2025-02-16 17:10:19.937Z298.125° NW17.186°2025-02-16 17:15:19.937Z336.083° NNW
13 mins2025-02-17 01:09:19.937Z15.218° NNE2025-02-17 01:15:19.937Z76.034° E30.579°2025-02-17 01:22:19.937Z136.195° SSE
13 mins2025-02-17 03:04:19.937Z334.561° NNW2025-02-17 03:10:19.937Z267.728° W35.753°2025-02-17 03:17:19.937Z203.614° SW
|